This is the latest recevied weather packets stored in our database for station/object JF1AJE-13. If no packets are shown the sender has not sent any weather packets the latest 10 day(s).
| Time | Temp. | Humidity | Pressure | Rain* | Wind** | Luminosity | Snow |
|---|---|---|---|---|---|---|---|
| 1777495746 | 11.67° C | 92% | 1016.5 hPa | 0 mm | - | - | - |
| 1777494547 | 11.67° C | 92% | 1016.2 hPa | 0 mm | - | - | - |
| 1777493346 | 11.67° C | 92% | 1016.2 hPa | 0 mm | - | - | - |
| 1777492148 | 11.67° C | 92% | 1016 hPa | 0 mm | - | - | - |
| 1777490947 | 11.67° C | 92% | 1015.9 hPa | 0 mm | - | - | - |
| 1777489747 | 11.67° C | 92% | 1015.8 hPa | 0 mm | - | - | - |
| 1777488546 | 11.67° C | 92% | 1015.6 hPa | 0 mm | - | - | - |
| 1777487349 | 11.67° C | 92% | 1015.5 hPa | 0.25 mm | - | - | - |
| 1777486146 | 12.22° C | 92% | 1015.4 hPa | 0.25 mm | - | - | - |
| 1777484948 | 12.22° C | 92% | 1015.2 hPa | 0.51 mm | - | - | - |
| 1777483746 | 12.22° C | 92% | 1014.8 hPa | 0.51 mm | - | - | - |
| 1777482546 | 12.22° C | 92% | 1014.8 hPa | 0.51 mm | - | - | - |
| 1777481346 | 12.22° C | 92% | 1014.7 hPa | 0.25 mm | - | - | - |
| 1777480146 | 12.22° C | 91% | 1014.5 hPa | 0.25 mm | - | - | - |
| 1777478947 | 12.78° C | 91% | 1014.5 hPa | 0.25 mm | - | - | - |
| 1777477747 | 12.78° C | 91% | 1014.3 hPa | 0.25 mm | - | - | - |
| 1777476545 | 12.78° C | 91% | 1014.3 hPa | 0 mm | - | - | - |
| 1777475349 | 12.78° C | 91% | 1014.3 hPa | 0 mm | - | - | - |
| 1777474147 | 12.78° C | 91% | 1014.3 hPa | 2.79 mm | - | - | - |
| 1777472946 | 12.78° C | 90% | 1014.2 hPa | 1.52 mm | - | - | - |
| 1777471747 | 13.33° C | 90% | 1013.9 hPa | 1.52 mm | - | - | - |
| 1777470547 | 13.33° C | 90% | 1013.8 hPa | 0.51 mm | - | - | - |
| 1777469347 | 13.89° C | 90% | 1013.4 hPa | 0.25 mm | - | - | - |
| 1777468147 | 13.89° C | 89% | 1013.3 hPa | 0.25 mm | - | - | - |
| 1777466948 | 13.89° C | 90% | 1013 hPa | 0 mm | - | - | - |
* Rain latest hour (hover to see other rain measurements)
** Current wind speed in m/s (hover to see current wind gust speed)